Location: Caltech
(34.1382°N, 118.1253°W)
Time: 08:29:55
(UTC-07:00)

Cosmos 1975 - Visible Passes

Search period start: 27 April 2015 00:00
Search period end: 07 May 2015 00:00
Orbit: 548 x 571 km, 82.5° (Epoch: 27 April)

Date Brightness Start Highest point End Pass type
(mag) Time Alt. Az. Time Alt. Az. Time Alt. Az.
28 Apr 5.9 22:52:48 10° N 22:52:51 10° N 22:52:51 10° N visible
29 Apr 5.8 22:51:17 10° N 22:51:38 12° N 22:51:38 12° N visible
30 Apr 5.7 22:49:47 10° N 22:50:25 14° N 22:50:25 14° N visible
01 May 5.5 22:48:18 10° N 22:49:13 16° N 22:49:13 16° N visible
02 May 5.4 22:46:51 10° N 22:48:01 19° N 22:48:01 19° N visible
03 May 5.2 22:45:24 10° N 22:46:51 21° NNW 22:46:51 21° NNW visible
04 May 5.1 22:43:58 10° NNW 22:45:40 24° NNW 22:45:40 24° NNW visible
05 May 4.9 22:42:34 10° NNW 22:44:31 26° NNW 22:44:31 26° NNW visible
06 May 5.2 21:06:53 10° NE 21:07:27 11° ENE 21:07:27 11° ENE visible
06 May 4.9 22:41:11 10° NNW 22:43:23 27° NW 22:43:23 27° NW visible
